Weather History for Shannon, Ireland

Change the Weather History Date:

Sunday, December 29, 2013

  Actual Average Record
Temperature  
Mean Temperature 42 °F -  
Max Temperature 50 °F 47 °F 55 °F (2006)
Min Temperature 35 °F 37 °F 23 °F (2000)
Degree Days  
Heating Degree Days 22    
Moisture  
Dew Point 40 °F    
Average Humidity 89    
Maximum Humidity 100    
Minimum Humidity 78    
Precipitation  
Precipitation 0.04 in 0.13 in - ()
Sea Level Pressure  
Sea Level Pressure 29.69 in    
Wind  
Wind Speed 10 mph ()    
Max Wind Speed 24 mph    
Max Gust Speed -    
Visibility 7.5 miles    
Events Rain    
Averages and records for this station are not official NWS values.
T = Trace of Precipitation, MM = Missing Value Source: Averaged Metar Reports

Daily Weather History Graph

Daily Weather History Graph

Search for Another Location

Airport:

Trip Planner

Search our weather history database for the weather conditions in past years. The results will help you decide how hot, cold, wet, or windy it might be!

Date:

Astronomy

Dec. 29, 2013 Rise Set
Actual Time 8:47 AM GMT 4:28 PM GMT
Civil Twilight 8:05 AM GMT 5:09 PM GMT
Nautical Twilight 7:21 AM GMT 5:54 PM GMT
Astronomical Twilight 6:39 AM GMT 6:36 PM GMT
Moon 5:02 AM GMT (12/29) 2:06 PM GMT (12/29)
Length of Visible Light 9h 04m
Length of Day
7h 40m
Waning Crescent, 12% of the Moon is Illuminated
Dec 29
Waning Crescent
Jan 1
New
Jan 8
First Quarter
Jan 16
Full
Jan 24
Last Quarter

Hourly Weather History & Observations

Time (GMT) Temp. Windchill Dew Point Humidity Pressure Visibility Wind Dir Wind Speed Gust Speed Precip Events Conditions
12:00 AM 39 °F - 36 °F 84% 29.81 in 16 mi West 6.7 mph - -   Partly Cloudy
12:00 AM 39.2 °F 35.9 °F 35.6 °F 87% 29.80 in 6.2 mi WSW 4.6 mph - N/A   Scattered Clouds
12:30 AM 39.2 °F 34.2 °F 35.6 °F 87% 29.80 in 6.2 mi WSW 6.9 mph - N/A Rain Light Rain Showers
1:00 AM 39 °F - 36 °F 86% 29.81 in 12 mi SW 8.9 mph - - Rain Light Rain Showers
1:00 AM 39.2 °F 33.6 °F 35.6 °F 87% 29.80 in 6.2 mi SW 8.1 mph - N/A   Scattered Clouds
1:30 AM 39.2 °F 33.6 °F 35.6 °F 87% 29.80 in 6.2 mi SW 8.1 mph - N/A   Partly Cloudy
2:00 AM 39 °F - 36 °F 84% 29.82 in 16 mi SSW 6.7 mph - -   Scattered Clouds
2:00 AM 39.2 °F 34.2 °F 35.6 °F 87% 29.80 in 6.2 mi SSW 6.9 mph - N/A   Partly Cloudy
2:30 AM 37.4 °F 32.8 °F 35.6 °F 93% 29.83 in 6.2 mi SSW 5.8 mph - N/A   Scattered Clouds
3:00 AM 39 °F - 36 °F 83% 29.84 in 16 mi WSW 6.7 mph - - Rain Light Rain Showers
3:00 AM 39.2 °F 35.0 °F 35.6 °F 87% 29.83 in 6.2 mi WSW 5.8 mph - N/A   Partly Cloudy
3:30 AM 37.4 °F 31.4 °F 35.6 °F 93% 29.86 in 6.2 mi South 8.1 mph - N/A   Partly Cloudy
4:00 AM 38 °F - 35 °F 85% 29.86 in 16 mi South 11.2 mph - -   Scattered Clouds
4:00 AM 37.4 °F 30.3 °F 35.6 °F 93% 29.86 in 6.2 mi South 10.4 mph - N/A   Partly Cloudy
4:30 AM 39.2 °F 33.0 °F 35.6 °F 87% 29.86 in 6.2 mi SSW 9.2 mph - N/A   Partly Cloudy
5:00 AM 38 °F - 35 °F 87% 29.86 in 16 mi South 8.9 mph - -   Scattered Clouds
5:00 AM 39.2 °F 33.0 °F 35.6 °F 87% 29.86 in 6.2 mi South 9.2 mph - N/A   Partly Cloudy
5:30 AM 37.4 °F 31.4 °F 35.6 °F 93% 29.86 in 6.2 mi South 8.1 mph - N/A   Partly Cloudy
6:00 AM 37 °F - 35 °F 89% 29.86 in 16 mi South 6.7 mph - -   Partly Cloudy
6:00 AM 37.4 °F 32.1 °F 35.6 °F 93% 29.86 in 6.2 mi South 6.9 mph - N/A   Scattered Clouds
6:30 AM 37.4 °F 30.8 °F 33.8 °F 87% 29.86 in 6.2 mi South 9.2 mph - N/A   Partly Cloudy
7:00 AM 37 °F - 34 °F 84% 29.86 in 16 mi SSE 11.2 mph - -   Partly Cloudy
7:00 AM 37.4 °F 29.8 °F 33.8 °F 87% 29.83 in 6.2 mi SSE 11.5 mph - N/A   Partly Cloudy
7:30 AM 37.4 °F 29.8 °F 33.8 °F 87% 29.83 in 6.2 mi South 11.5 mph - N/A   Partly Cloudy
8:00 AM 36 °F - 34 °F 89% 29.85 in 16 mi SSE 11.2 mph - -   Partly Cloudy
8:00 AM 37.4 °F 30.3 °F 33.8 °F 87% 29.83 in 6.2 mi SSE 10.4 mph - N/A   Partly Cloudy
8:30 AM 37.4 °F 29.3 °F 33.8 °F 87% 29.83 in 6.2 mi SSE 12.7 mph - N/A   Scattered Clouds
9:00 AM 36 °F - 34 °F 88% 29.85 in 19 mi SE 11.2 mph - -   Scattered Clouds
9:00 AM 35.6 °F 27.5 °F 33.8 °F 93% 29.83 in 6.2 mi SE 11.5 mph - N/A   Scattered Clouds
9:30 AM 37.4 °F 29.8 °F 33.8 °F 87% 29.83 in 6.2 mi ESE 11.5 mph - N/A   Mostly Cloudy
10:00 AM 37 °F - 35 °F 88% 29.84 in 19 mi ESE 11.2 mph - -   Scattered Clouds
10:00 AM 37.4 °F 30.3 °F 35.6 °F 93% 29.83 in 6.2 mi ESE 10.4 mph - N/A   Mostly Cloudy
10:30 AM 37.4 °F 29.3 °F 35.6 °F 93% 29.80 in 6.2 mi ESE 12.7 mph - N/A   Mostly Cloudy
11:00 AM 39 °F - 36 °F 85% 29.80 in 31 mi SE 15.7 mph - -   Scattered Clouds
11:00 AM 39.2 °F 30.8 °F 35.6 °F 87% 29.77 in 6.2 mi SE 15.0 mph - N/A   Mostly Cloudy
11:30 AM 41.0 °F 33.9 °F 37.4 °F 87% 29.77 in 6.2 mi ESE 12.7 mph - N/A   Mostly Cloudy
12:00 PM 42 °F - 38 °F 80% 29.77 in 25 mi SE 13.4 mph - -   Overcast
12:00 PM 41.0 °F 33.5 °F 37.4 °F 87% 29.74 in 6.2 mi SE 13.8 mph - N/A   Mostly Cloudy
12:30 PM 44.6 °F 37.8 °F 39.2 °F 81% 29.71 in 6.2 mi SE 15.0 mph - N/A   Mostly Cloudy
1:00 PM 45 °F - 40 °F 78% 29.71 in 16 mi SSE 17.9 mph - -   Overcast
1:00 PM 44.6 °F 36.9 °F 41.0 °F 87% 29.71 in 6.2 mi SSE 18.4 mph - N/A   Mostly Cloudy
1:30 PM 46.4 °F 38.7 °F 42.8 °F 87% 29.68 in 6.2 mi SSE 20.7 mph - N/A   Mostly Cloudy
2:00 PM 47 °F - 43 °F 82% 29.66 in 12 mi SSE 20.1 mph - -   Overcast
2:00 PM 46.4 °F 39.0 °F 42.8 °F 87% 29.65 in 6.2 mi SSE 19.6 mph - N/A   Mostly Cloudy
2:30 PM 48.2 °F - 44.6 °F 87% 29.62 in 6.2 mi SSE 23.0 mph - N/A   Mostly Cloudy
3:00 PM 48 °F - 45 °F 86% 29.61 in 12 mi SSE 22.4 mph - - Rain Light Rain
3:00 PM 48.2 °F - 44.6 °F 87% 29.59 in 6.2 mi SSE 23.0 mph - N/A Rain Light Rain
3:30 PM 48.2 °F - 46.4 °F 93% 29.56 in 6.2 mi SSE 20.7 mph - N/A Rain Light Rain
4:00 PM 49 °F - 46 °F 86% 29.57 in 7 mi SSE 20.1 mph - - Rain Light Rain
4:00 PM 48.2 °F - 46.4 °F 93% 29.56 in 6.2 mi SSE 20.7 mph - N/A Rain Light Rain
4:30 PM 48.2 °F - 46.4 °F 93% 29.53 in 6.2 mi SSE 19.6 mph - N/A Rain Light Rain
5:00 PM 49 °F - 46 °F 87% 29.54 in 5 mi SSE 22.4 mph - - Rain Light Rain
5:00 PM 50.0 °F - 46.4 °F 87% 29.53 in 5.0 mi SSE 21.9 mph - N/A Rain Light Rain
5:30 PM 50.0 °F - 46.4 °F 87% 29.50 in 3.7 mi SSE 20.7 mph - N/A Rain Light Rain
6:00 PM 49 °F - 47 °F 92% 29.50 in 7 mi SSE 20.1 mph - - Rain Light Rain
6:00 PM 50.0 °F - 48.2 °F 94% 29.47 in 6.2 mi SSE 20.7 mph - N/A Rain Light Rain
6:30 PM 50.0 °F - 48.2 °F 94% 29.47 in 5.6 mi SSE 21.9 mph - N/A Rain Light Rain
7:00 PM 50 °F - 48 °F 89% 29.47 in 5 mi SSE 22.4 mph - - Rain Light Rain
7:00 PM 50.0 °F - 48.2 °F 94% 29.44 in 5.0 mi SSE 23.0 mph - N/A Rain Light Rain
7:30 PM 50.0 °F - 48.2 °F 94% 29.44 in 5.0 mi SSE 24.2 mph - N/A Rain Light Rain
8:00 PM 50 °F - 48 °F 91% 29.44 in 5 mi SSE 22.4 mph - - Rain Light Rain
8:00 PM 50.0 °F - 48.2 °F 94% 29.42 in 5.0 mi SSE 23.0 mph - N/A Rain Light Rain
8:30 PM 50.0 °F - 48.2 °F 94% 29.42 in 3.1 mi South 17.3 mph - N/A Rain Light Rain
9:00 PM 48.2 °F - 46.4 °F 93% 29.44 in 2.5 mi WSW 12.7 mph - N/A Rain Light Rain
9:30 PM 48.2 °F - 46.4 °F 93% 29.44 in 3.7 mi SW 5.8 mph - N/A Rain Rain
10:00 PM 46 °F - 45 °F 96% 29.44 in 2 mi SSW 4.5 mph - - Rain Rain
10:00 PM 46.4 °F 45.2 °F 44.6 °F 93% 29.44 in 2.5 mi SSW 3.5 mph - N/A Rain Rain
10:30 PM 46.4 °F 44.3 °F 44.6 °F 93% 29.42 in 2.5 mi SSW 4.6 mph - N/A Rain Rain
11:00 PM 45 °F - 44 °F 97% 29.43 in 2 mi SW 2.2 mph - - Rain Rain
11:00 PM 44.6 °F - 44.6 °F 100% 29.42 in 2.5 mi SW 2.3 mph - N/A Rain Rain
11:30 PM 46.4 °F 44.3 °F 44.6 °F 93% 29.42 in 5.0 mi SW 4.6 mph - N/A Rain Rain